Regional Weather Roundup
Issued by NWS New Orleans/Baton Rouge, LA

Home | Current Version | Previous Version | Text Only | Print | Product List | Glossary Off
Versions: 1 2 3 4 5 6 7 8 9 10 11 12 13 14 15 16 17 18 19 20 21 22 23 24 25 26 27 28 29 30 31 32 33 34 35 36 37 38 39 40 41 42 43 44 45 46 47 48 49 50

220
ASUS44 KLIX 301205
RWRLIX
NEW ORLEANS REGIONAL WEATHER ROUNDUP
NATIONAL WEATHER SERVICE NEW ORLEANS LA
700 AM CDT WED JUL 30 2014

NOTE: "FAIR" INDICATES FEW OR NO CLOUDS BELOW 12,000 FEET WITH NO
      SIGNIFICANT WEATHER AND/OR OBSTRUCTIONS TO VISIBILITY.
      SKY/WX - SKY CONDITION AND SIGNIFICANT WEATHER.
      TMP - AIR TEMPERATURE.     DP    - DEWPOINT TEMPERATURE.
      RH  - RELATIVE HUMIDITY.   PRES  - PRESSURE.
      HI  - HEAT INDEX.          WCI   - WIND CHILL INDEX.

*  THESE STATIONS ARE NOT NWS OR FAA STATIONS AND ARE NOT UNDER
   NWS QUALITY CONTROL.

LAZ038-040-048-061>063-065>067-069-301300-
SOUTHEAST LOUISIANA

CITY           SKY/WX    TMP DP  RH WIND       PRES   REMARKS
N.O. AUDUBON     N/A     76  62  60 MISG        N/A
6HR MIN TEMP:  75; 6HR MAX TEMP:  82;

N.O. INTL ARPT PTCLDY    75  62  64 E5        30.06R
6HR MIN TEMP:  74; 6HR MAX TEMP:  81;

N.O. LAKEFRONT CLEAR     76  62  62 E13       30.07R
6HR MIN TEMP:  76; 6HR MAX TEMP:  81;

N.O. DOWNTOWN*   N/A     73  57  56 NE8       30.07R
6HR MIN TEMP:  73; 6HR MAX TEMP:  82;

SLIDELL        CLEAR     66  63  90 N5        30.06R
6HR MIN TEMP:  66; 6HR MAX TEMP:  73;

BATON ROUGE    PTCLDY    68  64  87 CALM      30.08R
6HR MIN TEMP:  66; 6HR MAX TEMP:  73;

BOOTHVILLE     CLEAR     79  69  71 NE8       30.05R
6HR MIN TEMP:  75; 6HR MAX TEMP:  81;

BELLE CHASSE   PTCLDY    73  63  70 NE5       30.05S
6HR MIN TEMP:  71; 6HR MAX TEMP:  78;

BOGALUSA*        N/A     64  61  88 CALM      30.09S
6HR MIN TEMP:  64; 6HR MAX TEMP:  72;

GALLIANO*      NOT AVBL
NEW ROADS*     PTSUNNY   68  63  85 CALM      30.09R
6HR MIN TEMP:  67; 6HR MAX TEMP:  73;

GONZALES*        N/A     69  66  88 CALM      30.07R
6HR MIN TEMP:  69; 6HR MAX TEMP:  73;

HAMMOND*       CLEAR     66  61  82 CALM      30.09S
HOUMA*         CLEAR     72  66  83 CALM      30.06R
PORT FOURCHON* SUNNY     79  72  78 NE8       30.06S

$$

MSZ070-080>082-301300-
SOUTHERN MISSISSIPPI

CITY           SKY/WX    TMP DP  RH WIND       PRES   REMARKS
MCCOMB         CLEAR     66  59  78 NE5       30.09R
6HR MIN TEMP:  65; 6HR MAX TEMP:  72;

GULFPORT       CLEAR     72  60  66 N5        30.05S
6HR MIN TEMP:  71; 6HR MAX TEMP:  79;

BILOXI         CLEAR     69  61  74 NE7       30.06R
6HR MIN TEMP:  69; 6HR MAX TEMP:  76;

PASCAGOULA     CLEAR     67  60  78 N6        30.06R
6HR MIN TEMP:  66; 6HR MAX TEMP:  73;

STENNIS ARPT*  CLEAR    N/A N/A N/A CALM      30.06

$$

COASTAL OBSERVATIONS
LAKE AND NEARSHORE STATIONS

STATION/POSITION TIME  TEMP    WIND        PRES    WAVE
                       AIR SEA DIR/SP/G            HT/PER
                 (UTC) (F)     (DEG/KT/KT) (MB)    (FT/S)
PASCAGOULA       1200   70      10/  9/ 11 1017.0
WAVELAND YACHT   1200   71      40/  8/ 10 1017.2
GRAND ISLE       1200   79 86   60/  9/ 11 1017.9
SOUTHWEST PASS   1200   82 84   40/ 10/ 11 1017.3
NEW CANAL        1200   77 82   80/  6/  8 1018.4
SHELL BEACH      1200   76 80   50/ 12/ 14 1017.5

OFFSHORE STATIONS

STATION/POSITION TIME  TEMP    WIND        PRES    WAVE
                       AIR SEA DIR/SP/G            HT/PER
                 (UTC) (F)     (DEG/KT/KT) (MB)    (FT/S)
64 S DAUPHIN ISL 1121   81 85   40/ 16/ 17 1016.6

$$




USA.gov is the U.S. government's official web portal to all federal, state and local government web resources and services.